Regional Weather Roundup
Issued by NWS

Home | Current Version | Previous Version | Text Only | Print | Product List | Glossary Off
Versions: 1 2 3 4 5 6 7 8 9 10 11 12 13 14 15 16 17 18 19 20 21 22 23 24 25 26 27 28 29 30 31 32 33 34 35 36 37 38 39 40 41 42 43 44 45 46 47 48 49 50

000
ASUS43 KOAX 231502
RWRNE

WEATHER ROUNDUP FOR NEBRASKA
NATIONAL WEATHER SERVICE OMAHA NE
900 AM CST TUE JAN 23 2018

NOTES: SATELLITE DATA IS BEING USED TO AUGMENT CLOUD COVER ABOVE
       12000 FEET.
       "FAIR" INDICATES FEW OR NO CLOUDS BELOW 12,000 FEET WITH NO
       SIGNIFICANT WEATHER AND/OR OBSTRUCTIONS TO VISIBILITY.


NEZ001>004-019>022-054>056-231600-
NEBRASKA PANHANDLE

CITY           SKY/WX    TMP DP  RH WIND       PRES   REMARKS
SCOTTSBLUFF    CLEAR     20  14  77 NW8       30.19R WCI  10
ALLIANCE       CLEAR     16  14  92 W10       30.14R WCI   4
CHADRON        PTCLDY    23  18  81 SW10      30.17R WCI  12
GORDON         FAIR      20  16  82 W7        30.12R WCI  11
KIMBALL        CLEAR     26  17  68 NW18      30.16S WCI  12
SIDNEY         PTCLDY    23  16  74 NW13      30.17R WCI  11
$$

NEZ057>060-069>072-079>082-231600-
SOUTHWEST NEBRASKA

CITY           SKY/WX    TMP DP  RH WIND       PRES   REMARKS
NORTH PLATTE   PTCLDY    10   6  84 NW7       30.16R WCI  -1
IMPERIAL       PTCLDY    26  19  74 NW12      30.17R WCI  16
LEXINGTON      PTCLDY    17  11  78 W13       30.15R WCI   3
MCCOOK         PTCLDY    22  15  75 W15       30.17R WCI   9
OGALLALA       MOCLDY    26  19  76 W8        30.17R WCI  17
$$

NEZ005>010-023>029-035>040-094-231600-
NORTH CENTRAL NEBRASKA

CITY           SKY/WX    TMP DP  RH WIND       PRES   REMARKS
VALENTINE      CLOUDY    27  21  78 W9        30.11R WCI  18
AINSWORTH      MOCLDY    25  22  87 NW8       30.09R WCI  16
BROKEN BOW     PTCLDY    27  18  69 NW16      30.10R WCI  15
O`NEILL        CLEAR     13  12  96 W5        30.09R WCI   5
ORD            CLEAR      9   6  88 NW5       30.12R WCI   1
THEDFORD       CLOUDY    27  22  80 W13       30.12R WCI  16
$$

NEZ041-046>049-061>064-073>077-083>087-231600-
SOUTH CENTRAL NEBRASKA

CITY           SKY/WX    TMP DP  RH WIND       PRES   REMARKS
GRAND ISLAND   CLOUDY    16  11  80 NW7       30.12R WCI   6
AURORA           N/A     12  11  92 NW7       30.12R WCI   2
HASTINGS       SUNNY     20  14  77 NW8       30.12R WCI  10
HEBRON         PTSUNNY   17  15  89 CALM      30.15S
HOLDREGE       CLOUDY    20  15  82 W6        30.14R WCI  12
KEARNEY        CLOUDY    19  13  77 W10       30.14R WCI   7
YORK           CLOUDY    18  18 100 N8        30.14R FOG     WCI   7
$$

NEZ011>018-030>034-042>045-231600-
NORTHEAST NEBRASKA

CITY           SKY/WX    TMP DP  RH WIND       PRES   REMARKS
NORFOLK        FLURRIES  23  18  81 NW14      30.10R WCI  11
ALBION         CLOUDY    17  15  90 NW9       30.11R WCI   6
BLAIR          CLOUDY    22  19  90 NW12      30.12R WCI  10
COLUMBUS       CLOUDY    20  18  92 NW10      30.14R WCI   9
FREMONT          N/A    N/A N/A N/A MISG        N/A
TEKAMAH        CLOUDY    22  20  92 NW16      30.14R WCI   8
WAYNE            N/A     21  20  96 NW12      30.12R WCI   9
$$

NEZ050>053-065>068-078-088>093-231600-
SOUTHEAST NEBRASKA

CITY           SKY/WX    TMP DP  RH WIND       PRES   REMARKS
LINCOLN        FLURRIES  23  20  88 N9        30.16R WCI  13
OMAHA EPPLEY   CLOUDY    24  20  84 NW12      30.14R WCI  13
BEATRICE       CLOUDY    24  22  91 N9        30.15R WCI  14
FALLS CITY     CLOUDY    25  20  81 NW13      30.15R WCI  14
NEBRASKA CITY  CLOUDY    24  23  99 NW12      30.14R WCI  13
PLATTSMOUTH    CLOUDY    23  21  91 W14       30.13R WCI  11
$$

NEZ044-045-051>053-067-231600-
OMAHA AREA

CITY           SKY/WX    TMP DP  RH WIND       PRES   REMARKS
OMAHA EPPLEY   CLOUDY    24  20  84 NW12      30.14R WCI  13
BLAIR          CLOUDY    22  19  90 NW12      30.12R WCI  10
FREMONT          N/A    N/A N/A N/A MISG        N/A
MILLARD        CLOUDY    24  19  83 NW9       30.15R WCI  14
OFFUTT AFB     CLOUDY    23  19  86 NW15      30.13R WCI  10
PLATTSMOUTH    CLOUDY    23  21  91 W14       30.13R WCI  11
WAHOO          CLOUDY    23  20  87 N7        30.14R WCI  15
$$




USA.gov is the U.S. government's official web portal to all federal, state and local government web resources and services.